QPF
0.02 0.01 0.00 0.00 0.00 0.00 0.01 0.02 0.02 0.01 0.01 0.02 0.02 0.02 0.02 0.02 0.02 0.02 0.02 0.02 0.03 0.02 0.03 0.03 0.03 0.04 0.05 0.04 0.04 0.04 0.04 0.05 0.06 0.06 0.06 0.08 0.09 0.08 0.05 0.03 0.03 0.03 0.02 0.01
0.02 0.01 0.01 0.01 0.01 0.01 0.01 0.02 0.02 0.02 0.02 0.02 0.02 0.02 0.02 0.03 0.02 0.02 0.02 0.01 0.02 0.02 0.02 0.02 0.02 0.02 0.02 0.02 0.02 0.02 0.03 0.03 0.04 0.08 0.09 0.10 0.10 0.09 0.06 0.03 0.04 0.04 0.03 0.02
0.02 0.01 0.01 0.01 0.01 0.01 0.01 0.02 0.02 0.03 0.02 0.02 0.03 0.02 0.02 0.03 0.03 0.04 0.04 0.02 0.01 0.01 0.01 0.01 0.01 0.02 0.02 0.02 0.02 0.02 0.03 0.03 0.03 0.04 0.06 0.09 0.09 0.09 0.08 0.05 0.04 0.04 0.03 0.03
0.03 0.02 0.02 0.01 0.01 0.01 0.02 0.03 0.03 0.03 0.04 0.05 0.06 0.05 0.03 0.03 0.03 0.03 0.03 0.02 0.02 0.01 0.01 0.02 0.02 0.02 0.01 0.02 0.02 0.03 0.03 0.03 0.03 0.03 0.05 0.09 0.11 0.10 0.09 0.06 0.04 0.04 0.03 0.03
0.03 0.04 0.02 0.01 0.01 0.01 0.02 0.05 0.04 0.04 0.05 0.07 0.08 0.07 0.04 0.02 0.01 0.02 0.03 0.02 0.02 0.02 0.02 0.02 0.03 0.03 0.02 0.03 0.03 0.02 0.02 0.03 0.03 0.05 0.05 0.06 0.07 0.06 0.05 0.05 0.05 0.05 0.04 0.03
0.03 0.04 0.04 0.02 0.01 0.01 0.02 0.04 0.04 0.04 0.05 0.05 0.05 0.04 0.04 0.03 0.02 0.02 0.02 0.02 0.03 0.03 0.04 0.03 0.03 0.03 0.03 0.03 0.03 0.04 0.04 0.05 0.05 0.07 0.06 0.05 0.04 0.03 0.03 0.03 0.04 0.05 0.04 0.03
0.03 0.03 0.04 0.03 0.01 0.01 0.02 0.04 0.03 0.03 0.04 0.05 0.04 0.05 0.05 0.06 0.04 0.03 0.03 0.03 0.04 0.06 0.06 0.06 0.04 0.03 0.04 0.04 0.04 0.05 0.06 0.06 0.07 0.08 0.08 0.07 0.06 0.04 0.03 0.03 0.03 0.03 0.03 0.03
0.03 0.03 0.04 0.04 0.02 0.02 0.02 0.01 0.01 0.02 0.03 0.03 0.04 0.05 0.06 0.09 0.09 0.06 0.04 0.04 0.06 0.07 0.07 0.09 0.08 0.06 0.05 0.05 0.06 0.07 0.06 0.06 0.06 0.07 0.08 0.08 0.09 0.06 0.03 0.02 0.02 0.02 0.02 0.03
0.02 0.03 0.04 0.05 0.04 0.02 0.02 0.02 0.02 0.03 0.04 0.03 0.03 0.04 0.05 0.07 0.09 0.09 0.08 0.08 0.08 0.08 0.08 0.10 0.08 0.07 0.06 0.06 0.07 0.07 0.05 0.05 0.05 0.05 0.07 0.07 0.08 0.07 0.05 0.04 0.04 0.03 0.03 0.03
0.02 0.02 0.03 0.06 0.05 0.03 0.02 0.02 0.02 0.02 0.04 0.06 0.04 0.04 0.04 0.04 0.05 0.06 0.07 0.08 0.09 0.09 0.07 0.08 0.08 0.07 0.07 0.06 0.08 0.09 0.06 0.06 0.06 0.06 0.06 0.06 0.06 0.07 0.06 0.04 0.04 0.04 0.03 0.02
0.03 0.03 0.03 0.05 0.07 0.05 0.03 0.03 0.02 0.02 0.02 0.05 0.06 0.04 0.04 0.03 0.02 0.02 0.02 0.03 0.05 0.07 0.06 0.07 0.07 0.06 0.06 0.08 0.09 0.10 0.08 0.07 0.06 0.05 0.05 0.05 0.05 0.06 0.06 0.03 0.03 0.04 0.05 0.04
0.05 0.03 0.03 0.04 0.06 0.05 0.04 0.04 0.03 0.02 0.02 0.03 0.05 0.04 0.03 0.03 0.03 0.02 0.02 0.02 0.03 0.04 0.05 0.06 0.06 0.06 0.06 0.07 0.07 0.07 0.07 0.06 0.05 0.05 0.07 0.09 0.07 0.08 0.09 0.07 0.05 0.03 0.04 0.05
0.04 0.04 0.04 0.04 0.04 0.04 0.03 0.03 0.03 0.02 0.02 0.02 0.03 0.03 0.02 0.02 0.02 0.03 0.02 0.02 0.02 0.03 0.04 0.05 0.05 0.06 0.06 0.05 0.06 0.06 0.07 0.06 0.05 0.05 0.07 0.12 0.13 0.09 0.10 0.12 0.10 0.08 0.07 0.06
0.03 0.03 0.03 0.03 0.03 0.03 0.03 0.02 0.02 0.01 0.01 0.01 0.01 0.02 0.02 0.01 0.01 0.02 0.03 0.03 0.03 0.02 0.03 0.04 0.05 0.05 0.05 0.05 0.06 0.07 0.08 0.09 0.08 0.06 0.07 0.10 0.14 0.12 0.10 0.09 0.08 0.08 0.09 0.08
0.01 0.02 0.02 0.02 0.02 0.02 0.02 0.01 0.01 0.01 0.01 0.01 0.01 0.01 0.01 0.01 0.01 0.01 0.01 0.02 0.02 0.02 0.02 0.03 0.04 0.04 0.04 0.04 0.05 0.06 0.06 0.07 0.08 0.08 0.08 0.09 0.13 0.12 0.09 0.08 0.07 0.08 0.08 0.09
0.01 0.01 0.01 0.01 0.02 0.02 0.02 0.02 0.01 0.01 0.00 0.00 0.00 0.01 0.01 0.01 0.00 0.00 0.01 0.01 0.02 0.02 0.01 0.01 0.03 0.03 0.03 0.03 0.03 0.04 0.03 0.04 0.06 0.07 0.09 0.08 0.11 0.13 0.09 0.07 0.07 0.06 0.06 0.07
0.01 0.01 0.01 0.01 0.01 0.02 0.02 0.02 0.01 0.01 0.00 0.00 0.00 0.00 0.01 0.01 0.00 0.00 0.00 0.01 0.02 0.03 0.02 0.02 0.02 0.02 0.02 0.02 0.02 0.02 0.02 0.01 0.02 0.04 0.06 0.07 0.08 0.12 0.08 0.04 0.04 0.04 0.04 0.04
0.01 0.01 0.01 0.01 0.01 0.02 0.03 0.02 0.01 0.01 0.00 0.00 0.00 0.00 0.01 0.01 0.01 0.01 0.01 0.01 0.01 0.02 0.02 0.02 0.01 0.02 0.02 0.02 0.02 0.01 0.01 0.01 0.01 0.01 0.02 0.04 0.05 0.08 0.09 0.05 0.03 0.03 0.02 0.02
0.01 0.01 0.01 0.01 0.01 0.02 0.03 0.03 0.02 0.01 0.00 0.00 0.01 0.00 0.00 0.00 0.00 0.01 0.01 0.01 0.01 0.02 0.03 0.03 0.01 0.02 0.02 0.02 0.02 0.01 0.01 0.00 0.00 0.00 0.01 0.03 0.04 0.04 0.05 0.04 0.02 0.02 0.01 0.01
0.01 0.01 0.01 0.01 0.01 0.03 0.04 0.04 0.02 0.01 0.01 0.01 0.01 0.00 0.00 0.00 0.00 0.00 0.01 0.01 0.01 0.01 0.02 0.03 0.01 0.01 0.02 0.02 0.02 0.01 0.01 0.01 0.01 0.01 0.01 0.02 0.04 0.03 0.04 0.03 0.01 0.01 0.01 0.01
0.01 0.01 0.01 0.01 0.01 0.03 0.04 0.03 0.01 0.01 0.01 0.01 0.01 0.01 0.01 0.01 0.01 0.01 0.01 0.01 0.01 0.01 0.01 0.02 0.02 0.01 0.02 0.02 0.02 0.02 0.01 0.01 0.01 0.01 0.01 0.02 0.03 0.04 0.03 0.03 0.02 0.01 0.01 0.01
0.01 0.01 0.01 0.01 0.01 0.03 0.05 0.03 0.02 0.01 0.01 0.01 0.01 0.01 0.01 0.01 0.01 0.01 0.01 0.01 0.01 0.01 0.01 0.02 0.02 0.02 0.01 0.01 0.02 0.02 0.01 0.01 0.01 0.01 0.01 0.01 0.03 0.04 0.04 0.03 0.02 0.01 0.01 0.01
0.01 0.01 0.01 0.01 0.02 0.03 0.05 0.03 0.02 0.01 0.01 0.01 0.01 0.01 0.01 0.01 0.01 0.01 0.02 0.01 0.01 0.02 0.02 0.02 0.02 0.02 0.01 0.00 0.00 0.01 0.01 0.01 0.01 0.01 0.01 0.01 0.02 0.04 0.06 0.05 0.03 0.02 0.01 0.01
0.01 0.01 0.01 0.02 0.02 0.03 0.05 0.04 0.03 0.02 0.01 0.01 0.02 0.02 0.01 0.01 0.01 0.01 0.01 0.01 0.01 0.02 0.01 0.02 0.02 0.01 0.01 0.00 0.00 0.00 0.00 0.00 0.01 0.01 0.01 0.01 0.03 0.04 0.08 0.08 0.06 0.03 0.03 0.02
0.01 0.01 0.01 0.01 0.01 0.03 0.04 0.04 0.03 0.02 0.01 0.01 0.01 0.02 0.02 0.01 0.01 0.01 0.02 0.02 0.02 0.02 0.01 0.02 0.02 0.01 0.01 0.01 0.00 0.00 0.00 0.00 0.00 0.01 0.01 0.01 0.02 0.03 0.05 0.09 0.08 0.03 0.02 0.02
0.03 0.02 0.01 0.01 0.01 0.02 0.02 0.02 0.02 0.02 0.01 0.01 0.01 0.02 0.02 0.02 0.01 0.01 0.02 0.02 0.02 0.02 0.01 0.01 0.02 0.02 0.01 0.01 0.01 0.01 0.00 0.00 0.00 0.01 0.01 0.01 0.02 0.02 0.03 0.07 0.09 0.06 0.02 0.01
0.02 0.03 0.02 0.01 0.02 0.01 0.01 0.01 0.01 0.01 0.01 0.01 0.02 0.02 0.02 0.02 0.02 0.02 0.02 0.02 0.02 0.02 0.01 0.01 0.01 0.02 0.01 0.01 0.01 0.01 0.01 0.00 0.00 0.01 0.02 0.02 0.02 0.03 0.03 0.05 0.08 0.07 0.04 0.02
MSLP
1010.75 1010.10 1009.56 1009.13 1008.78 1008.48 1008.14 1007.72 1007.16 1006.44 1005.61 1004.70 1003.81 1003.02 1002.44 1002.09 1002.01 1002.18 1002.51 1002.94 1003.35 1003.64 1003.77 1003.69 1003.40 1002.95 1002.40 1001.82 1001.27 1000.80 1000.46 1000.22 1000.09 1000.04 1000.02 1000.04 1000.06 1000.10 1000.17 1000.29 1000.49 1000.79 1001.18 1001.67
1010.78 1010.19 1009.67 1009.24 1008.89 1008.56 1008.21 1007.78 1007.23 1006.56 1005.78 1004.94 1004.12 1003.39 1002.83 1002.49 1002.38 1002.48 1002.75 1003.11 1003.47 1003.74 1003.87 1003.83 1003.61 1003.24 1002.78 1002.28 1001.80 1001.39 1001.06 1000.82 1000.66 1000.56 1000.49 1000.44 1000.38 1000.34 1000.33 1000.37 1000.47 1000.67 1000.97 1001.36
1010.79 1010.31 1009.89 1009.53 1009.21 1008.91 1008.56 1008.14 1007.61 1006.97 1006.23 1005.44 1004.66 1003.96 1003.40 1003.03 1002.88 1002.91 1003.09 1003.36 1003.64 1003.86 1003.97 1003.93 1003.74 1003.43 1003.04 1002.61 1002.20 1001.83 1001.53 1001.30 1001.12 1000.99 1000.88 1000.77 1000.65 1000.55 1000.46 1000.42 1000.45 1000.56 1000.77 1001.07
1010.74 1010.42 1010.14 1009.89 1009.66 1009.41 1009.11 1008.72 1008.22 1007.61 1006.90 1006.14 1005.39 1004.71 1004.15 1003.76 1003.55 1003.51 1003.60 1003.77 1003.95 1004.09 1004.14 1004.07 1003.88 1003.59 1003.23 1002.84 1002.47 1002.13 1001.84 1001.61 1001.42 1001.26 1001.10 1000.94 1000.78 1000.61 1000.46 1000.34 1000.29 1000.33 1000.46 1000.69
1010.59 1010.43 1010.30 1010.19 1010.06 1009.90 1009.67 1009.33 1008.87 1008.30 1007.64 1006.93 1006.21 1005.55 1005.00 1004.60 1004.34 1004.24 1004.24 1004.32 1004.40 1004.45 1004.42 1004.30 1004.07 1003.76 1003.40 1003.01 1002.64 1002.31 1002.01 1001.77 1001.55 1001.36 1001.16 1000.95 1000.72 1000.49 1000.27 1000.09 999.97 999.93 999.99 1000.16
1010.29 1010.26 1010.26 1010.28 1010.27 1010.20 1010.05 1009.78 1009.39 1008.88 1008.27 1007.62 1006.96 1006.34 1005.82 1005.42 1005.15 1005.00 1004.95 1004.94 1004.94 1004.90 1004.80 1004.60 1004.32 1003.97 1003.58 1003.17 1002.78 1002.43 1002.12 1001.84 1001.59 1001.35 1001.10 1000.83 1000.54 1000.25 999.95 999.70 999.51 999.40 999.40 999.51
1009.83 1009.88 1009.97 1010.08 1010.17 1010.19 1010.12 1009.93 1009.61 1009.18 1008.65 1008.07 1007.48 1006.94 1006.47 1006.10 1005.85 1005.69 1005.60 1005.55 1005.49 1005.39 1005.21 1004.96 1004.62 1004.23 1003.80 1003.37 1002.95 1002.57 1002.23 1001.92 1001.63 1001.34 1001.03 1000.70 1000.34 999.97 999.60 999.27 999.01 998.83 998.78 998.86
1009.23 1009.30 1009.43 1009.59 1009.74 1009.84 1009.84 1009.73 1009.49 1009.14 1008.70 1008.21 1007.71 1007.25 1006.86 1006.55 1006.34 1006.21 1006.12 1006.06 1005.97 1005.83 1005.62 1005.33 1004.96 1004.54 1004.09 1003.63 1003.19 1002.79 1002.43 1002.09 1001.76 1001.42 1001.07 1000.67 1000.25 999.80 999.36 998.96 998.62 998.39 998.30 998.36
1008.56 1008.58 1008.70 1008.87 1009.05 1009.19 1009.25 1009.21 1009.05 1008.79 1008.44 1008.05 1007.65 1007.28 1006.98 1006.75 1006.59 1006.51 1006.45 1006.40 1006.33 1006.19 1005.97 1005.67 1005.31 1004.88 1004.44 1003.98 1003.55 1003.15 1002.77 1002.42 1002.07 1001.70 1001.30 1000.86 1000.38 999.87 999.36 998.90 998.51 998.23 998.11 998.15
1007.86 1007.81 1007.88 1008.03 1008.22 1008.38 1008.49 1008.50 1008.42 1008.24 1007.99 1007.69 1007.38 1007.10 1006.88 1006.72 1006.64 1006.60 1006.60 1006.59 1006.54 1006.43 1006.25 1005.98 1005.64 1005.26 1004.84 1004.42 1004.01 1003.63 1003.27 1002.92 1002.57 1002.19 1001.77 1001.30 1000.79 1000.24 999.69 999.19 998.76 998.46 998.32 998.36
1007.20 1007.06 1007.07 1007.19 1007.37 1007.56 1007.70 1007.77 1007.75 1007.64 1007.46 1007.24 1007.02 1006.81 1006.66 1006.57 1006.54 1006.56 1006.60 1006.64 1006.64 1006.58 1006.44 1006.23 1005.96 1005.63 1005.27 1004.91 1004.55 1004.21 1003.89 1003.57 1003.24 1002.87 1002.46 1001.99 1001.47 1000.92 1000.37 999.85 999.42 999.12 998.98 999.03
1006.58 1006.38 1006.36 1006.46 1006.64 1006.84 1007.02 1007.14 1007.17 1007.13 1007.02 1006.86 1006.69 1006.54 1006.44 1006.39 1006.40 1006.45 1006.53 1006.61 1006.65 1006.65 1006.58 1006.43 1006.23 1005.97 1005.69 1005.39 1005.10 1004.82 1004.54 1004.27 1003.97 1003.65 1003.27 1002.83 1002.35 1001.83 1001.32 1000.84 1000.44 1000.16 1000.05 1000.12
1006.00 1005.79 1005.76 1005.87 1006.06 1006.30 1006.52 1006.68 1006.77 1006.78 1006.72 1006.61 1006.48 1006.37 1006.29 1006.26 1006.28 1006.35 1006.45 1006.55 1006.64 1006.68 1006.66 1006.58 1006.44 1006.25 1006.04 1005.81 1005.58 1005.36 1005.14 1004.92 1004.68 1004.40 1004.08 1003.71 1003.30 1002.86 1002.42 1002.01 1001.68 1001.47 1001.40 1001.50
1005.44 1005.26 1005.26 1005.40 1005.64 1005.92 1006.18 1006.39 1006.54 1006.59 1006.57 1006.50 1006.40 1006.30 1006.23 1006.20 1006.23 1006.30 1006.40 1006.51 1006.61 1006.68 1006.70 1006.67 1006.58 1006.45 1006.29 1006.12 1005.94 1005.77 1005.60 1005.43 1005.25 1005.04 1004.80 1004.52 1004.21 1003.87 1003.54 1003.25 1003.01 1002.88 1002.87 1003.01
1004.88 1004.77 1004.83 1005.03 1005.32 1005.64 1005.96 1006.22 1006.40 1006.51 1006.53 1006.49 1006.41 1006.32 1006.26 1006.23 1006.24 1006.30 1006.40 1006.51 1006.61 1006.69 1006.73 1006.72 1006.67 1006.57 1006.45 1006.31 1006.17 1006.03 1005.90 1005.78 1005.65 1005.51 1005.36 1005.18 1004.98 1004.78 1004.58 1004.41 1004.30 1004.26 1004.33 1004.51
1004.33 1004.30 1004.44 1004.70 1005.04 1005.41 1005.76 1006.07 1006.30 1006.44 1006.50 1006.49 1006.44 1006.38 1006.32 1006.30 1006.31 1006.36 1006.44 1006.54 1006.64 1006.71 1006.76 1006.76 1006.72 1006.64 1006.53 1006.41 1006.28 1006.17 1006.06 1005.97 1005.90 1005.83 1005.76 1005.68 1005.61 1005.53 1005.47 1005.44 1005.44 1005.51 1005.64 1005.86
1003.83 1003.89 1004.08 1004.39 1004.76 1005.16 1005.54 1005.87 1006.13 1006.32 1006.42 1006.46 1006.45 1006.42 1006.39 1006.39 1006.41 1006.46 1006.54 1006.63 1006.72 1006.78 1006.82 1006.82 1006.78 1006.70 1006.60 1006.48 1006.36 1006.25 1006.16 1006.10 1006.06 1006.04 1006.05 1006.06 1006.09 1006.14 1006.20 1006.28 1006.40 1006.55 1006.74 1006.99
1003.44 1003.55 1003.78 1004.09 1004.47 1004.86 1005.25 1005.60 1005.89 1006.11 1006.26 1006.35 1006.40 1006.43 1006.45 1006.48 1006.53 1006.60 1006.69 1006.78 1006.86 1006.93 1006.96 1006.95 1006.91 1006.82 1006.72 1006.59 1006.47 1006.37 1006.28 1006.24 1006.22 1006.25 1006.31 1006.39 1006.50 1006.64 1006.79 1006.96 1007.15 1007.36 1007.59 1007.85
1003.23 1003.34 1003.55 1003.84 1004.18 1004.54 1004.91 1005.25 1005.56 1005.82 1006.03 1006.19 1006.31 1006.42 1006.51 1006.60 1006.70 1006.80 1006.91 1007.02 1007.10 1007.17 1007.19 1007.18 1007.13 1007.05 1006.94 1006.82 1006.70 1006.59 1006.52 1006.48 1006.48 1006.52 1006.61 1006.74 1006.89 1007.07 1007.27 1007.49 1007.72 1007.95 1008.19 1008.43
1003.20 1003.28 1003.43 1003.65 1003.92 1004.23 1004.56 1004.89 1005.20 1005.50 1005.77 1006.01 1006.22 1006.41 1006.59 1006.76 1006.92 1007.07 1007.21 1007.33 1007.43 1007.50 1007.53 1007.52 1007.47 1007.40 1007.29 1007.18 1007.06 1006.96 1006.89 1006.85 1006.86 1006.91 1007.00 1007.13 1007.29 1007.48 1007.68 1007.90 1008.12 1008.35 1008.56 1008.78
1003.33 1003.33 1003.39 1003.52 1003.70 1003.94 1004.22 1004.53 1004.86 1005.20 1005.53 1005.86 1006.16 1006.45 1006.72 1006.97 1007.19 1007.39 1007.57 1007.71 1007.82 1007.89 1007.93 1007.93 1007.89 1007.82 1007.74 1007.64 1007.54 1007.45 1007.38 1007.34 1007.34 1007.38 1007.45 1007.56 1007.69 1007.85 1008.03 1008.21 1008.39 1008.57 1008.75 1008.91
1003.54 1003.44 1003.40 1003.42 1003.52 1003.69 1003.93 1004.22 1004.57 1004.95 1005.35 1005.76 1006.16 1006.54 1006.89 1007.21 1007.49 1007.73 1007.93 1008.09 1008.21 1008.29 1008.33 1008.34 1008.31 1008.27 1008.20 1008.12 1008.04 1007.97 1007.92 1007.88 1007.86 1007.88 1007.92 1007.98 1008.07 1008.17 1008.29 1008.41 1008.54 1008.66 1008.78 1008.90
1003.71 1003.52 1003.38 1003.32 1003.34 1003.46 1003.67 1003.97 1004.34 1004.77 1005.23 1005.71 1006.19 1006.65 1007.06 1007.43 1007.75 1008.02 1008.23 1008.40 1008.51 1008.59 1008.64 1008.66 1008.65 1008.63 1008.59 1008.54 1008.49 1008.44 1008.40 1008.36 1008.33 1008.32 1008.32 1008.34 1008.37 1008.41 1008.46 1008.52 1008.58 1008.65 1008.73 1008.80
1003.74 1003.48 1003.28 1003.15 1003.13 1003.22 1003.43 1003.74 1004.15 1004.63 1005.15 1005.69 1006.23 1006.73 1007.19 1007.59 1007.92 1008.19 1008.40 1008.55 1008.66 1008.73 1008.78 1008.81 1008.82 1008.82 1008.82 1008.80 1008.79 1008.76 1008.74 1008.71 1008.67 1008.64 1008.61 1008.58 1008.56 1008.55 1008.54 1008.55 1008.57 1008.59 1008.64 1008.69
1003.57 1003.28 1003.05 1002.90 1002.88 1002.97 1003.20 1003.54 1003.98 1004.50 1005.07 1005.65 1006.22 1006.75 1007.22 1007.62 1007.94 1008.19 1008.38 1008.51 1008.60 1008.67 1008.71 1008.75 1008.78 1008.81 1008.84 1008.87 1008.89 1008.90 1008.89 1008.87 1008.84 1008.80 1008.75 1008.69 1008.64 1008.59 1008.56 1008.54 1008.53 1008.55 1008.58 1008.64
1003.20 1002.92 1002.70 1002.58 1002.58 1002.71 1002.97 1003.36 1003.84 1004.39 1004.98 1005.58 1006.15 1006.67 1007.12 1007.50 1007.79 1008.01 1008.16 1008.27 1008.34 1008.39 1008.44 1008.49 1008.55 1008.61 1008.68 1008.75 1008.80 1008.85 1008.87 1008.87 1008.85 1008.81 1008.76 1008.70 1008.64 1008.59 1008.55 1008.53 1008.53 1008.56 1008.62 1008.70
1002.70 1002.46 1002.29 1002.23 1002.28 1002.47 1002.78 1003.20 1003.71 1004.28 1004.88 1005.47 1006.02 1006.51 1006.92 1007.25 1007.50 1007.68 1007.80 1007.88 1007.93 1007.98 1008.04 1008.11 1008.19 1008.29 1008.40 1008.51 1008.61 1008.69 1008.74 1008.77 1008.77 1008.75 1008.71 1008.66 1008.61 1008.58 1008.57 1008.58 1008.62 1008.69 1008.79 1008.91
Thickness
5694 5699 5701 5701 5702 5704 5702 5704 5701 5705 5706 5705 5705 5704 5703 5703 5704 5704 5704 5704 5704 5704 5705 5705 5705 5704 5704 5703 5702 5699 5697 5697 5695 5694 5693 5691 5690 5689 5687 5686 5685 5682 5680 5679
5679 5689 5692 5690 5696 5698 5698 5700 5700 5700 5696 5702 5700 5698 5695 5694 5695 5695 5695 5696 5697 5698 5698 5697 5697 5697 5696 5695 5694 5693 5691 5690 5690 5689 5688 5686 5684 5683 5681 5680 5678 5677 5675 5673
5671 5680 5678 5675 5687 5690 5691 5694 5692 5689 5688 5691 5687 5684 5684 5685 5687 5687 5688 5688 5689 5690 5690 5690 5690 5690 5689 5688 5687 5686 5685 5685 5684 5683 5682 5680 5679 5677 5675 5673 5671 5670 5668 5667
5666 5663 5654 5672 5684 5684 5681 5681 5684 5682 5682 5682 5679 5678 5677 5678 5679 5679 5680 5681 5682 5683 5683 5683 5682 5682 5682 5682 5681 5680 5679 5679 5679 5677 5676 5674 5673 5670 5668 5666 5665 5663 5662 5660
5656 5655 5660 5664 5668 5669 5668 5666 5674 5674 5673 5674 5674 5672 5671 5672 5672 5672 5673 5674 5675 5677 5678 5677 5676 5676 5675 5675 5675 5674 5673 5673 5672 5671 5669 5668 5666 5664 5662 5660 5658 5657 5656 5654
5647 5644 5645 5653 5661 5666 5663 5654 5665 5666 5664 5665 5665 5662 5662 5664 5664 5666 5666 5667 5668 5669 5670 5669 5669 5670 5669 5668 5667 5666 5667 5666 5665 5664 5663 5661 5659 5658 5656 5655 5654 5652 5651 5649
5640 5638 5644 5647 5653 5656 5645 5646 5655 5658 5657 5657 5654 5653 5653 5654 5655 5656 5657 5658 5659 5660 5661 5662 5663 5663 5662 5662 5661 5661 5660 5659 5658 5656 5655 5655 5653 5652 5651 5650 5648 5646 5645 5643
5634 5631 5631 5640 5643 5640 5639 5644 5646 5647 5648 5647 5646 5645 5645 5645 5645 5646 5647 5649 5650 5650 5651 5653 5654 5654 5653 5652 5653 5653 5652 5651 5649 5648 5648 5648 5646 5646 5645 5644 5642 5640 5639 5638
5628 5626 5628 5631 5632 5634 5636 5635 5636 5637 5638 5639 5637 5636 5636 5635 5636 5637 5637 5638 5640 5641 5641 5642 5644 5644 5644 5643 5644 5644 5642 5641 5640 5640 5640 5640 5639 5639 5639 5638 5637 5636 5635 5635
5617 5619 5622 5624 5625 5627 5628 5628 5629 5630 5630 5630 5628 5627 5626 5626 5626 5627 5628 5629 5631 5632 5632 5632 5633 5634 5634 5634 5635 5634 5633 5632 5633 5632 5632 5632 5632 5634 5633 5632 5631 5630 5629 5628
5608 5611 5612 5615 5616 5618 5620 5621 5622 5622 5622 5622 5621 5620 5619 5618 5617 5618 5620 5621 5622 5623 5622 5623 5623 5624 5625 5625 5626 5626 5625 5625 5626 5627 5627 5625 5625 5624 5625 5623 5621 5620 5621 5621
5603 5605 5605 5605 5609 5611 5611 5612 5613 5613 5613 5615 5615 5614 5613 5612 5611 5611 5611 5612 5613 5613 5613 5613 5614 5615 5615 5616 5616 5617 5617 5618 5620 5620 5620 5620 5619 5618 5614 5613 5610 5608 5607 5607
5599 5601 5601 5601 5602 5603 5604 5605 5606 5606 5605 5606 5607 5607 5606 5605 5605 5605 5604 5604 5604 5604 5605 5605 5606 5606 5607 5607 5607 5608 5608 5610 5612 5613 5614 5613 5614 5613 5611 5607 5603 5601 5600 5599
5593 5593 5591 5593 5594 5597 5597 5598 5598 5599 5599 5600 5600 5599 5599 5598 5598 5597 5597 5597 5597 5597 5597 5597 5598 5598 5599 5600 5600 5600 5602 5602 5603 5605 5606 5607 5606 5607 5606 5606 5604 5602 5596 5593
5586 5587 5587 5588 5589 5589 5590 5590 5590 5591 5592 5592 5592 5591 5591 5590 5590 5590 5590 5590 5590 5591 5591 5591 5591 5592 5593 5593 5593 5594 5595 5597 5597 5598 5599 5600 5600 5601 5601 5600 5599 5597 5595 5591
5581 5583 5583 5582 5582 5582 5582 5582 5582 5583 5584 5584 5584 5583 5583 5583 5583 5583 5583 5582 5582 5583 5583 5584 5585 5585 5586 5586 5587 5587 5588 5586 5587 5590 5593 5593 5594 5594 5594 5594 5593 5591 5589 5587
5574 5575 5575 5576 5576 5576 5575 5575 5576 5577 5577 5577 5576 5576 5576 5576 5575 5575 5576 5576 5575 5575 5576 5577 5577 5579 5580 5581 5581 5583 5584 5584 5580 5584 5587 5587 5587 5587 5586 5586 5586 5585 5584 5581
5573 5572 5572 5571 5570 5569 5569 5569 5569 5569 5569 5569 5569 5569 5569 5569 5568 5568 5569 5568 5568 5568 5569 5570 5570 5572 5573 5574 5575 5577 5579 5580 5581 5581 5580 5580 5580 5580 5579 5579 5579 5579 5579 5578
5568 5567 5567 5565 5565 5564 5563 5562 5562 5562 5562 5563 5563 5562 5562 5562 5562 5561 5561 5561 5562 5562 5563 5563 5561 5564 5566 5567 5566 5569 5571 5573 5573 5574 5574 5571 5572 5574 5574 5573 5573 5573 5573 5572
5563 5563 5562 5560 5560 5559 5557 5557 5556 5555 5556 5556 5556 5555 5555 5554 5555 5555 5555 5556 5557 5558 5557 5556 5557 5559 5560 5561 5559 5564 5565 5565 5566 5567 5567 5567 5567 5567 5568 5568 5567 5567 5567 5566
5558 5558 5557 5555 5554 5554 5553 5551 5550 5549 5549 5549 5549 5549 5548 5548 5549 5549 5550 5552 5551 5551 5551 5549 5552 5553 5554 5553 5551 5557 5558 5558 5558 5558 5558 5559 5560 5560 5560 5560 5560 5560 5559 5559
5553 5553 5552 5551 5550 5548 5547 5546 5545 5544 5543 5543 5543 5544 5543 5543 5543 5544 5544 5545 5545 5542 5545 5548 5548 5545 5545 5544 5550 5552 5553 5552 5552 5552 5551 5552 5552 5552 5552 5552 5553 5553 5553 5553
5548 5548 5547 5546 5544 5543 5542 5541 5540 5539 5539 5538 5538 5538 5538 5538 5539 5539 5539 5539 5539 5536 5538 5540 5537 5535 5533 5539 5544 5546 5546 5546 5546 5546 5546 5546 5546 5546 5546 5546 5546 5546 5545 5544
5542 5541 5541 5540 5539 5537 5536 5536 5535 5534 5534 5533 5532 5532 5531 5533 5534 5534 5534 5530 5529 5529 5532 5531 5528 5527 5526 5535 5538 5540 5540 5540 5540 5541 5540 5540 5541 5540 5540 5539 5540 5540 5539 5537
5536 5536 5536 5534 5533 5533 5532 5531 5530 5530 5530 5529 5528 5527 5527 5528 5528 5528 5527 5527 5524 5524 5527 5525 5522 5522 5526 5532 5533 5534 5534 5534 5534 5534 5533 5533 5533 5533 5533 5532 5532 5532 5532 5531
5530 5531 5531 5529 5529 5529 5530 5529 5529 5527 5527 5526 5524 5524 5523 5522 5522 5522 5521 5522 5522 5519 5521 5523 5523 5520 5524 5527 5528 5528 5528 5527 5527 5527 5526 5526 5526 5525 5525 5524 5523 5523 5523 5523
5526 5526 5525 5526 5526 5526 5526 5526 5524 5523 5522 5521 5520 5519 5518 5518 5517 5518 5517 5518 5518 5518 5518 5518 5518 5519 5520 5521 5522 5521 5522 5521 5521 5520 5519 5519 5518 5517 5516 5515 5515 5514 5514 5514